Location: Decatur Area Astronomy Club
(40.0275°N, 88.7810°W)
Time: 03:17:03
(UTC-06:00)

Amateur Radio Satellites - All Passes

Search period start: 22 December 2014 02:47
Search period end: 23 December 2014 02:47
Location: Decatur Area Astronomy Club, 40.0275°N, 88.7810°W

Satellite Date Start Highest point End Downlink Frequencies (MHz)
Time Altitude Azimuth
KKS-1 22 Dec 02:54:59 02:57:43 16° 267° (W) 03:00:28 437.445
VERMONT LUNAR 22 Dec 03:06:03 03:09:34 67° 165° (SSE) 03:13:05 437.305
PHONESAT 2.4 22 Dec 03:27:12 03:30:48 65° 164° (SSE) 03:34:24 2401.200-2431.200
AIST 1 22 Dec 03:27:45 03:32:01 72° 264° (W) 03:36:14
AO-7 22 Dec 03:44:31 03:52:34 49° 101° (E) 04:00:32 29.400- 29.500
ITAMSAT 1 22 Dec 03:50:20 03:53:19 16° 299° (WNW) 03:56:17 435.822/435.867
Gurwin Techsat 1B 22 Dec 03:53:37 03:57:43 23° 295° (WNW) 04:01:47 435.225
GONETS M04 22 Dec 04:01:07 04:08:01 27° 82° (E) 04:14:55
MOZHAYETS 4 22 Dec 04:13:01 04:17:40 77° 258° (WSW) 04:22:21
HORYU 2 22 Dec 04:17:07 04:20:49 25° 293° (WNW) 04:24:30 437.375
JAS-2 22 Dec 04:22:40 04:27:33 32° 95° (E) 04:32:09 435.910
PRISM 22 Dec 04:24:06 04:27:14 21° 67° (ENE) 04:30:23 437.425
VERMONT LUNAR 22 Dec 04:44:21 04:47:54 81° 2° (N) 04:51:26 437.305
SO-50 22 Dec 04:50:33 04:55:15 45° 52° (NE) 04:59:57 436.795
STRAND 1 22 Dec 04:52:55 04:56:40 21° 64° (ENE) 05:00:25 437.568
PHONESAT 2.4 22 Dec 05:05:51 05:09:29 81° 1° (N) 05:13:07 2401.200-2431.200
Cubesat XI-IV 22 Dec 05:17:33 05:21:33 21° 94° (E) 05:25:31 437.490
AO-7 22 Dec 05:37:36 05:45:07 39° 299° (WNW) 05:52:38 29.400- 29.500
CUBESAT XI-V 22 Dec 05:40:40 05:45:18 65° 75° (ENE) 05:49:55 437.345
CUTE-I 22 Dec 05:49:35 05:54:36 42° 99° (E) 05:59:37 437.470
GONETS M04 22 Dec 05:55:20 06:04:05 65° 281° (W) 06:12:53
PRISM 22 Dec 05:58:44 06:02:33 33° 262° (W) 06:06:23 437.425
JAS-2 22 Dec 06:07:50 06:12:37 30° 294° (WNW) 06:17:06 435.910
VERMONT LUNAR 22 Dec 06:22:43 06:26:10 55° 198° (SSW) 06:29:38 437.305
STRAND 1 22 Dec 06:30:36 06:35:30 47° 260° (W) 06:40:26 437.568
SO-50 22 Dec 06:31:44 06:35:32 23° 249° (WSW) 06:39:19 436.795
PHONESAT 2.4 22 Dec 06:44:35 06:48:09 58° 198° (SSW) 06:51:43 2401.200-2431.200
Cubesat XI-IV 22 Dec 06:56:46 07:01:50 47° 290° (WNW) 07:06:54 437.490
CUBESAT XI-V 22 Dec 07:21:23 07:23:09 12° 270° (W) 07:24:54 437.345
HO-68 22 Dec 07:22:11 07:25:50 15° 89° (E) 07:29:28 435.675
CUTE-I 22 Dec 07:30:11 07:34:25 25° 295° (WNW) 07:38:38 437.470
GONETS M04 22 Dec 07:59:46 08:02:53 12° 303° (WNW) 08:06:01
VERMONT LUNAR 22 Dec 08:01:59 08:04:01 15° 213° (SSW) 08:06:04 437.305
MaSat-1 22 Dec 08:10:42 08:12:59 79° 295° (WNW) 08:15:12 437.345
AAUSAT CUBESAT 2 22 Dec 08:19:34 08:22:42 20° 94° (E) 08:25:49 437.432
CUSAT 1 22 Dec 08:22:41 08:25:36 21° 84° (E) 08:29:10 437.405
PHONESAT 2.4 22 Dec 08:24:04 08:26:24 16° 213° (SSW) 08:28:43 2401.200-2431.200
BRITE-PL 22 Dec 08:29:41 08:34:22 51° 100° (E) 08:39:24 437.365/2234.400
UNISAT 6 22 Dec 08:34:23 08:36:44 14° 63° (ENE) 08:39:08 437.425
CANX-2 22 Dec 08:38:43 08:43:00 59° 100° (E) 08:47:14 2200.000
GOMX 1 22 Dec 08:47:16 08:52:02 55° 100° (E) 08:57:06 467.674
CUBEBUG 2 22 Dec 08:49:22 08:52:08 15° 92° (E) 08:54:56 437.445
QB50P1 22 Dec 08:52:21 08:54:24 13° 64° (ENE) 08:56:27 145.935-145.965
ZACube-1 22 Dec 08:53:18 08:54:45 11° 90° (E) 08:56:13 437.345
COMPASS 1 22 Dec 08:55:24 08:59:38 59° 100° (E) 09:03:48 437.405
DELFI C3 22 Dec 09:01:33 09:04:54 23° 95° (E) 09:08:12 145.870
SEEDS 22 Dec 09:03:24 09:07:43 88° 103° (ESE) 09:11:59 437.485
DOVE 4 22 Dec 09:04:21 09:09:10 62° 101° (E) 09:14:13 437.250
ANTELSAT 22 Dec 09:04:46 09:08:34 29° 69° (ENE) 09:12:28 437.575/2403.000
HO-68 22 Dec 09:07:13 09:14:25 89° 106° (ESE) 09:21:33 435.675
CUTE 1.7 + AOD 2 22 Dec 09:09:18 09:13:36 68° 285° (WNW) 09:17:52 437.475
CINEMA 3 22 Dec 09:16:34 09:21:13 49° 99° (E) 09:26:01 145.822/145.860
FUNcube-1 22 Dec 09:17:43 09:21:13 21° 94° (E) 09:24:43 145.935
O/OREOS (USA 219) 22 Dec 09:19:05 09:23:05 30° 61° (ENE) 09:27:05 437.305
POPSAT HIP 1 22 Dec 09:19:37 09:23:07 26° 69° (ENE) 09:26:38 437.405
DANDE 22 Dec 09:22:13 09:25:44 83° 98° (E) 09:30:33 436.750
UWE-3 22 Dec 09:22:42 09:26:45 29° 96° (E) 09:30:49 435.000/436.395/437.385
DX 1 22 Dec 09:32:39 09:36:51 47° 100° (E) 09:41:02 434.975-435.025
BUGSAT 1 22 Dec 09:36:35 09:40:13 31° 71° (ENE) 09:43:49 437.445
HUMSAT D 22 Dec 09:38:29 09:41:43 20° 94° (E) 09:44:56 437.325/437.525
TIGRISAT 22 Dec 09:38:29 09:42:48 67° 75° (ENE) 09:47:15 435.000
AISAT 22 Dec 09:43:54 09:47:18 21° 95° (E) 09:50:42 437.250
DUCHIFAT 1 22 Dec 09:45:59 09:50:03 51° 73° (ENE) 09:54:08 145.980
Oscar 11 22 Dec 09:51:53 09:56:15 74° 284° (WNW) 10:00:35 145.826/435.025
AAUSAT CUBESAT 2 22 Dec 09:54:37 09:58:25 33° 289° (WNW) 10:02:11 437.432
QB50P2 22 Dec 10:00:46 10:04:59 80° 76° (ENE) 10:09:13 145.880/145.840
UKube-1 22 Dec 10:01:37 10:05:58 83° 284° (WNW) 10:10:17 .
CUSAT 1 22 Dec 10:05:03 10:08:24 27° 293° (WNW) 10:12:39 437.405
UNISAT 6 22 Dec 10:08:44 10:13:01 55° 260° (W) 10:17:26 437.425
BRITE-PL 22 Dec 10:09:20 10:12:34 18° 293° (WNW) 10:15:56 437.365/2234.400
POLYITAN 1 22 Dec 10:10:18 10:14:30 80° 258° (WSW) 10:18:45 437.675
NANOSAT C BR1 22 Dec 10:10:50 10:15:02 80° 258° (WSW) 10:19:16 145.865
YUBILEINY 22 Dec 10:11:11 10:19:39 53° 77° (ENE) 10:28:05 435.215
CANX-2 22 Dec 10:16:30 10:18:25 13° 296° (WNW) 10:20:20 2200.000
CUBEBUG 2 22 Dec 10:24:33 10:29:05 53° 287° (WNW) 10:33:42 437.445
QB50P1 22 Dec 10:25:44 10:29:50 52° 260° (W) 10:33:58 145.935-145.965
GOMX 1 22 Dec 10:26:41 10:29:47 17° 294° (WNW) 10:32:59 467.674
ZACube-1 22 Dec 10:27:00 10:31:31 67° 285° (WNW) 10:36:05 437.345
COMPASS 1 22 Dec 10:33:04 10:34:49 12° 296° (WNW) 10:36:34 437.405
VELOX 1 22 Dec 10:35:18 10:39:45 78° 103° (ESE) 10:44:10 145.980
50 SAT 22 Dec 10:36:23 10:40:33 73° 101° (ESE) 10:44:42 437.505
DELFI C3 22 Dec 10:36:39 10:40:06 26° 291° (WNW) 10:43:31 145.870
RS-15 22 Dec 10:38:23 10:48:43 50° 111° (ESE) 10:59:00 29.354- 29.394
ANTELSAT 22 Dec 10:41:47 10:45:21 24° 265° (W) 10:49:01 437.575/2403.000
DOVE 4 22 Dec 10:43:39 10:46:29 16° 295° (WNW) 10:49:23 437.250
ESTCUBE 1 22 Dec 10:44:49 10:49:02 38° 98° (E) 10:53:12 437.505/2401.250
FUNcube-1 22 Dec 10:53:28 10:57:36 36° 289° (WNW) 11:01:47 145.935
CINEMA 3 22 Dec 10:54:47 10:58:04 19° 294° (WNW) 11:01:24 145.822/145.860
POPSAT HIP 1 22 Dec 10:55:30 10:58:57 25° 265° (W) 11:02:25 437.405
HO-68 22 Dec 10:56:40 11:01:11 18° 305° (NW) 11:05:41 435.675
O/OREOS (USA 219) 22 Dec 10:58:40 11:02:21 25° 257° (WSW) 11:06:02 437.305
UWE-3 22 Dec 10:59:17 11:03:10 27° 291° (WNW) 11:07:05 435.000/436.395/437.385
DX 1 22 Dec 11:10:05 11:12:42 16° 296° (WNW) 11:15:19 434.975-435.025
BUGSAT 1 22 Dec 11:12:49 11:15:45 19° 266° (W) 11:18:41 437.445
HUMSAT D 22 Dec 11:13:38 11:17:34 34° 289° (WNW) 11:21:30 437.325/437.525
CUBEBUG 1 22 Dec 11:18:36 11:22:58 88° 103° (ESE) 11:27:18 437.445
TIGRISAT 22 Dec 11:19:25 11:20:02 10° 271° (W) 11:20:40 435.000
AISAT 22 Dec 11:19:59 11:23:59 34° 290° (WNW) 11:27:59 437.250
DUCHIFAT 1 22 Dec 11:24:26 11:26:12 12° 269° (W) 11:27:59 145.980
Oscar 19 22 Dec 11:29:02 11:32:43 20° 64° (ENE) 11:36:24 437.125/150
ITAMSAT 1 22 Dec 11:51:06 11:53:03 12° 59° (ENE) 11:55:00 435.822/435.867
BEESAT 2 22 Dec 11:53:41 11:57:02 24° 112° (ESE) 12:00:25 435.950
YUBILEINY 22 Dec 12:08:39 12:16:00 32° 276° (W) 12:23:23 435.215
TISAT 1 22 Dec 12:09:09 12:13:23 79° 103° (ESE) 12:17:37 437.305
SWISSCUBE 22 Dec 12:13:57 12:16:19 14° 91° (E) 12:18:40 437.505
VELOX 1 22 Dec 12:14:55 12:15:40 10° 299° (WNW) 12:16:26 145.980
ITUPSAT 1 22 Dec 12:15:31 12:17:34 13° 91° (E) 12:19:37 437.325
SPROUT 22 Dec 12:18:50 12:23:09 86° 283° (WNW) 12:27:28 437.525
ESTCUBE 1 22 Dec 12:22:23 12:25:37 20° 294° (WNW) 12:28:50 437.505/2401.250
BEESAT 22 Dec 12:37:25 12:41:09 23° 94° (E) 12:44:51 436.000
ISS 22 Dec 12:46:16 12:49:34 84° 143° (SE) 12:52:52 145.825
BEESAT 3 22 Dec 12:49:07 12:53:12 73° 303° (WNW) 12:57:22 437.485
RS-15 22 Dec 12:50:34 13:01:02 49° 313° (NW) 13:11:39 29.354- 29.394
AO-7 22 Dec 12:55:47 12:59:32 14° 46° (NE) 13:03:17 29.400- 29.500
Oscar 19 22 Dec 13:06:41 13:11:39 50° 260° (W) 13:16:41 437.125/150
AIST 2 22 Dec 13:07:18 13:11:30 71° 119° (ESE) 13:15:47 435.215
PCSat 22 Dec 13:10:54 13:16:18 83° 117° (ESE) 13:21:45 145.827
ITAMSAT 1 22 Dec 13:26:36 13:31:47 87° 256° (WSW) 13:36:59 435.822/435.867
BEESAT 2 22 Dec 13:31:27 13:35:08 31° 309° (NW) 13:38:53 435.950
Gurwin Techsat 1B 22 Dec 13:33:21 13:38:36 67° 74° (ENE) 13:43:53 435.225
HORYU 2 22 Dec 13:38:32 13:42:15 27° 68° (ENE) 13:46:00 437.375
SWISSCUBE 22 Dec 13:49:51 13:54:33 60° 287° (WNW) 13:59:12 437.505
ITUPSAT 1 22 Dec 13:51:09 13:55:53 64° 286° (WNW) 14:00:34 437.325
AUBIESAT-1 22 Dec 14:00:00 14:04:06 47° 103° (ESE) 14:07:49 437.475
GONETS M04 22 Dec 14:13:38 14:16:17 12° 56° (ENE) 14:18:56
BEESAT 22 Dec 14:14:42 14:19:04 36° 290° (WNW) 14:23:24 436.000
ISS 22 Dec 14:24:05 14:26:30 19° 340° (NNW) 14:28:55 145.825
M-CUBED/EXP-1 PRIME 22 Dec 14:27:06 14:31:24 73° 290° (WNW) 14:35:17 437.505
BEESAT 3 22 Dec 14:32:01 14:32:09 10° 322° (NW) 14:32:16 437.485
JAS-2 22 Dec 14:34:23 14:39:13 19° 61° (ENE) 14:43:47 435.910
STARS 22 Dec 14:36:42 14:41:05 55° 101° (E) 14:45:26 437.465
AO-7 22 Dec 14:42:29 14:50:37 62° 67° (ENE) 14:58:49 29.400- 29.500
KKS-1 22 Dec 14:44:50 14:49:19 79° 285° (WNW) 14:53:47 437.445
AIST 2 22 Dec 14:48:10 14:50:37 15° 318° (NW) 14:53:05 435.215
PCSat 22 Dec 14:56:56 15:00:24 17° 316° (NW) 15:03:53 145.827
RS-15 22 Dec 15:09:24 15:17:02 21° 345° (NNW) 15:24:49 29.354- 29.394
HORYU 2 22 Dec 15:14:59 15:18:49 28° 264° (W) 15:22:41 437.375
Gurwin Techsat 1B 22 Dec 15:16:10 15:19:01 15° 270° (W) 15:21:53 435.225
AUBIESAT-1 22 Dec 15:36:05 15:38:35 15° 302° (WNW) 15:40:57 437.475
AIST 1 22 Dec 15:56:22 16:00:43 70° 95° (E) 16:05:03
ISS 22 Dec 16:03:06 16:04:06 11° 360° (N) 16:05:06 145.825
GONETS M04 22 Dec 16:06:27 16:15:09 63° 79° (E) 16:23:44
MOZHAYETS 4 22 Dec 16:09:33 16:13:27 26° 95° (E) 16:17:18
STARS 22 Dec 16:14:43 16:17:05 14° 297° (WNW) 16:19:26 437.465
JAS-2 22 Dec 16:15:54 16:23:34 86° 256° (WSW) 16:30:32 435.910
AO-7 22 Dec 16:36:54 16:43:49 29° 265° (W) 16:50:49 29.400- 29.500
Cubesat XI-IV 22 Dec 16:38:49 16:43:33 34° 68° (ENE) 16:48:17 437.490
CUTE-I 22 Dec 17:10:49 17:16:04 65° 73° (ENE) 17:21:20 437.470
RS-15 22 Dec 17:26:48 17:35:08 23° 22° (NNE) 17:43:39 29.354- 29.394
ISS 22 Dec 17:39:18 17:41:42 18° 20° (NNE) 17:44:06 145.825
CUBESAT XI-V 22 Dec 17:39:25 17:42:24 17° 92° (E) 17:45:22 437.345
MaSat-1 22 Dec 17:40:36 17:43:00 72° 246° (WSW) 17:45:32 437.345
PRISM 22 Dec 17:42:20 17:46:08 34° 98° (E) 17:49:53 437.425
MOZHAYETS 4 22 Dec 17:46:39 17:50:37 29° 291° (WNW) 17:54:34
HO-68 22 Dec 17:52:50 17:55:17 12° 50° (NE) 17:57:44 435.675
GONETS M04 22 Dec 18:04:23 18:11:14 27° 278° (W) 18:18:03
JAS-2 22 Dec 18:05:15 18:09:12 15° 271° (W) 18:13:00 435.910
Cubesat XI-IV 22 Dec 18:18:59 18:23:37 30° 264° (W) 18:28:15 437.490
DANDE 22 Dec 18:20:41 18:25:26 17° 63° (ENE) 18:30:27 436.750
STRAND 1 22 Dec 18:41:33 18:46:37 62° 101° (ESE) 18:51:38 437.568
CUTE-I 22 Dec 18:53:35 18:56:34 15° 269° (W) 18:59:33 437.470
CUSAT 1 22 Dec 18:59:35 19:06:41 35° 71° (ENE) 19:14:13 437.405
SO-50 22 Dec 19:06:41 19:09:18 15° 108° (ESE) 19:11:58 436.795
AAUSAT CUBESAT 2 22 Dec 19:11:31 19:13:40 14° 64° (ENE) 19:15:49 437.432
ISS 22 Dec 19:15:21 19:18:38 84° 218° (SW) 19:21:54 145.825
CUBESAT XI-V 22 Dec 19:15:40 19:20:03 45° 288° (WNW) 19:24:25 437.345
PRISM 22 Dec 19:18:29 19:21:25 19° 294° (WNW) 19:24:19 437.425
CANX-2 22 Dec 19:31:19 19:35:16 38° 72° (ENE) 19:39:16 2200.000
HO-68 22 Dec 19:34:32 19:41:36 63° 69° (ENE) 19:48:40 435.675
RS-15 22 Dec 19:39:26 19:50:33 60° 51° (NE) 20:02:07 29.354- 29.394
BRITE-PL 22 Dec 19:40:59 19:45:00 49° 73° (ENE) 19:49:00 437.365/2234.400
COMPASS 1 22 Dec 19:46:32 19:50:25 37° 72° (ENE) 19:54:21 437.405
CUBEBUG 2 22 Dec 19:49:17 19:50:33 11° 62° (ENE) 19:51:50 437.445
DELFI C3 22 Dec 19:50:39 19:53:01 15° 65° (ENE) 19:55:24 145.870
SEEDS 22 Dec 19:55:00 19:59:09 56° 74° (ENE) 20:03:21 437.485
GOMX 1 22 Dec 19:55:48 19:59:47 50° 73° (ENE) 20:03:51 467.674
CUTE 1.7 + AOD 2 22 Dec 20:01:27 20:05:43 79° 76° (ENE) 20:10:01 437.475
DANDE 22 Dec 20:01:57 20:09:55 75° 80° (E) 20:18:38 436.750
DOVE 4 22 Dec 20:10:18 20:14:19 53° 74° (ENE) 20:18:26 437.250
FUNcube-1 22 Dec 20:14:26 20:16:53 15° 65° (ENE) 20:19:23 145.935
BEESAT 2 22 Dec 20:14:28 20:17:09 16° 44° (NE) 20:19:49 435.950
CINEMA 3 22 Dec 20:18:33 20:22:24 38° 71° (ENE) 20:26:22 145.822/145.860
PCSat 22 Dec 20:19:02 20:20:16 11° 37° (NE) 20:21:30 145.827
UWE-3 22 Dec 20:20:22 20:23:32 21° 67° (ENE) 20:26:46 435.000/436.395/437.385
STRAND 1 22 Dec 20:22:11 20:25:16 16° 298° (WNW) 20:28:21 437.568
DX 1 22 Dec 20:27:50 20:31:51 38° 71° (ENE) 20:35:52 434.975-435.025
HUMSAT D 22 Dec 20:31:35 20:33:41 14° 64° (ENE) 20:35:47 437.325/437.525
AISAT 22 Dec 20:42:09 20:45:14 19° 66° (ENE) 20:48:20 437.250
CUSAT 1 22 Dec 20:42:14 20:50:00 56° 267° (W) 20:58:13 437.405
AAUSAT CUBESAT 2 22 Dec 20:44:47 20:48:53 51° 260° (W) 20:53:01 437.432
SO-50 22 Dec 20:44:51 20:49:18 57° 305° (NW) 20:53:56 436.795
Oscar 11 22 Dec 20:45:50 20:50:09 78° 76° (ENE) 20:54:32 145.826/435.025
UKube-1 22 Dec 20:55:56 21:00:15 78° 75° (ENE) 21:04:36 .
CANX-2 22 Dec 21:08:30 21:11:21 17° 267° (W) 21:14:13 2200.000
BEESAT 3 22 Dec 21:09:29 21:13:36 55° 55° (NE) 21:17:39 437.485
BRITE-PL 22 Dec 21:22:16 21:23:51 12° 269° (W) 21:25:27 437.365/2234.400
CUBEBUG 2 22 Dec 21:22:30 21:26:39 65° 259° (W) 21:30:56 437.445
ZACube-1 22 Dec 21:22:35 21:26:46 89° 75° (ENE) 21:31:05 437.345
COMPASS 1 22 Dec 21:23:26 21:26:16 17° 267° (W) 21:29:08 437.405
DELFI C3 22 Dec 21:23:59 21:27:54 44° 261° (W) 21:31:52 145.870
50 SAT 22 Dec 21:24:08 21:27:54 40° 72° (ENE) 21:31:43 437.505
HO-68 22 Dec 21:24:11 21:29:44 24° 266° (W) 21:35:18 435.675
AIST 2 22 Dec 21:30:05 21:34:08 38° 52° (NE) 21:38:06 435.215
TIGRISAT 22 Dec 21:32:13 21:35:07 16° 92° (E) 21:38:01 435.000
VELOX 1 22 Dec 21:32:30 21:36:52 64° 74° (ENE) 21:41:15 145.980
SEEDS 22 Dec 21:33:47 21:35:19 12° 270° (W) 21:36:52 437.485
GOMX 1 22 Dec 21:36:45 21:38:17 12° 270° (W) 21:39:49 467.674
ESTCUBE 1 22 Dec 21:44:06 21:48:11 34° 70° (ENE) 21:52:16 437.505/2401.250
DANDE 22 Dec 21:46:39 21:52:49 25° 275° (W) 21:59:22 436.750
QB50P2 22 Dec 21:48:42 21:50:56 14° 92° (E) 21:53:11 145.880/145.840
FUNcube-1 22 Dec 21:48:50 21:52:50 45° 261° (W) 21:56:57 145.935
DOVE 4 22 Dec 21:51:11 21:52:30 11° 270° (W) 21:53:49 437.250
BEESAT 2 22 Dec 21:51:38 21:55:46 58° 242° (WSW) 21:59:49 435.950
RS-15 22 Dec 21:52:17 22:02:32 41° 252° (WSW) 22:13:12 29.354- 29.394
UWE-3 22 Dec 21:56:09 21:59:53 31° 264° (W) 22:03:43 435.000/436.395/437.385
CINEMA 3 22 Dec 21:57:08 21:59:48 17° 268° (W) 22:02:32 145.822/145.860
POLYITAN 1 22 Dec 21:57:49 22:00:46 18° 93° (E) 22:03:42 437.675
NANOSAT C BR1 22 Dec 21:57:54 22:00:47 18° 93° (E) 22:03:39 145.865
PCSat 22 Dec 21:59:32 22:04:54 57° 58° (ENE) 22:10:12 145.827
UNISAT 6 22 Dec 22:01:36 22:05:53 33° 97° (E) 22:10:08 437.425
HUMSAT D 22 Dec 22:05:01 22:09:01 50° 261° (W) 22:13:07 437.325/437.525
DX 1 22 Dec 22:05:14 22:08:13 18° 266° (W) 22:11:13 434.975-435.025
QB50P1 22 Dec 22:12:12 22:15:46 25° 96° (E) 22:19:19 145.935-145.965
CUBEBUG 1 22 Dec 22:14:11 22:18:31 68° 75° (ENE) 22:22:51 437.445
AISAT 22 Dec 22:17:27 22:21:34 39° 261° (W) 22:25:43 437.250
SO-50 22 Dec 22:30:43 22:30:55 10° 326° (NW) 22:31:08 436.795
ANTELSAT 22 Dec 22:33:28 22:38:12 73° 102° (ESE) 22:42:55 437.575/2403.000
POPSAT HIP 1 22 Dec 22:40:45 22:44:57 54° 100° (E) 22:49:08 437.405
BEESAT 3 22 Dec 22:49:20 22:51:17 13° 252° (WSW) 22:53:14 437.485
BUGSAT 1 22 Dec 22:54:35 22:58:37 61° 101° (E) 23:02:40 437.445
50 SAT 22 Dec 23:01:04 23:03:19 14° 268° (W) 23:05:34 437.505
TISAT 1 22 Dec 23:01:06 23:05:11 53° 74° (ENE) 23:09:17 437.305
DUCHIFAT 1 22 Dec 23:07:26 23:11:42 75° 284° (WNW) 23:15:57 145.980
TIGRISAT 22 Dec 23:07:33 23:12:07 51° 287° (WNW) 23:16:40 435.000
AIST 2 22 Dec 23:09:20 23:12:29 20° 249° (WSW) 23:15:36 435.215
YUBILEINY 22 Dec 23:10:52 23:19:25 63° 92° (E) 23:27:57 435.215
SPROUT 22 Dec 23:12:23 23:16:37 67° 75° (ENE) 23:20:52 437.525
VELOX 1 22 Dec 23:12:40 23:13:51 11° 270° (W) 23:15:03 145.980
SWISSCUBE 22 Dec 23:20:15 23:23:09 16° 63° (ENE) 23:26:04 437.505
ESTCUBE 1 22 Dec 23:21:35 23:25:06 22° 266° (W) 23:28:38 437.505/2401.250
ITUPSAT 1 22 Dec 23:21:57 23:24:42 15° 63° (ENE) 23:27:27 437.325
QB50P2 22 Dec 23:22:59 23:27:06 48° 287° (WNW) 23:31:13 145.880/145.840
O/OREOS (USA 219) 22 Dec 23:30:37 23:34:44 38° 105° (ESE) 23:38:52 437.305
NANOSAT C BR1 22 Dec 23:32:50 23:36:47 38° 289° (WNW) 23:40:43 145.865
POLYITAN 1 22 Dec 23:32:51 23:36:49 37° 289° (WNW) 23:40:47 437.675
UNISAT 6 22 Dec 23:38:39 23:42:29 25° 292° (WNW) 23:46:19 437.425
M-CUBED/EXP-1 PRIME 22 Dec 23:42:08 23:45:11 17° 58° (ENE) 23:48:14 437.505
BEESAT 22 Dec 23:43:34 23:47:27 25° 67° (ENE) 23:51:21 436.000
PCSat 22 Dec 23:44:05 23:47:49 19° 255° (WSW) 23:51:32 145.827
QB50P1 22 Dec 23:48:01 23:51:34 26° 291° (WNW) 23:55:08 145.935-145.965
ANTELSAT 23 Dec 00:12:23 00:14:22 13° 298° (WNW) 00:16:21 437.575/2403.000
POPSAT HIP 1 23 Dec 00:18:16 00:20:23 14° 296° (WNW) 00:22:30 437.405
BUGSAT 1 23 Dec 00:32:28 00:33:36 11° 297° (WNW) 00:34:44 437.445
TISAT 1 23 Dec 00:39:42 00:41:19 12° 269° (W) 00:42:57 437.305
AUBIESAT-1 23 Dec 00:47:16 00:52:03 63° 69° (ENE) 00:56:53 437.475
VERMONT LUNAR 23 Dec 00:49:46 00:52:04 16° 148° (SSE) 00:54:21 437.305
SWISSCUBE 23 Dec 00:55:50 01:00:33 56° 259° (W) 01:05:16 437.505
ITUPSAT 1 23 Dec 00:57:20 01:02:04 60° 259° (W) 01:06:50 437.325
YUBILEINY 23 Dec 01:09:34 01:16:46 28° 291° (WNW) 01:24:00 435.215
O/OREOS (USA 219) 23 Dec 01:10:56 01:14:16 20° 303° (WNW) 01:17:36 437.305
M-CUBED/EXP-1 PRIME 23 Dec 01:14:49 01:19:38 65° 254° (WSW) 01:24:32 437.505
PHONESAT 2.4 23 Dec 01:15:51 01:18:16 17° 148° (SSE) 01:20:41 2401.200-2431.200
Oscar 19 23 Dec 01:18:42 01:23:52 61° 101° (E) 01:28:59 437.125/150
BEESAT 23 Dec 01:20:47 01:25:07 34° 263° (W) 01:29:28 436.000
STARS 23 Dec 01:33:20 01:37:30 45° 72° (ENE) 01:41:41 437.465
ITAMSAT 1 23 Dec 01:40:25 01:45:09 35° 97° (E) 01:49:50 435.822/435.867
KKS-1 23 Dec 01:42:22 01:46:47 86° 75° (ENE) 01:51:15 437.445
Gurwin Techsat 1B 23 Dec 01:50:44 01:55:15 28° 95° (E) 01:59:44 435.225
AIST 1 23 Dec 02:05:36 02:08:16 16° 71° (ENE) 02:10:55
AUBIESAT-1 23 Dec 02:24:33 02:27:18 15° 264° (W) 02:30:05 437.475
VERMONT LUNAR 23 Dec 02:26:28 02:29:57 59° 163° (SSE) 02:33:26 437.305
